Location: *
(38.9555°S, 57.3572°E)
Time: 01:38:59
(UTC+00:00)

YAOGAN 6 - Pass Details

Date: 15 July 2020
Orbit: 466 x 503 km, 97.0° (Epoch: 06 August)

Event Time Altitude Azimuth Distance (km) Brightness Sun altitude
Exits shadow 13:34:39 - 141° (SE) 2,148 5.3 -5.6°
Reaches altitude 10° 13:36:17 10° 125° (SE) 1,662 4.6 -5.9°
Maximum altitude 13:38:27 15° 87° (E) 1,362 4.3 -6.3°
Drops below altitude 10° 13:40:36 10° 50° (NE) 1,654 5.0 -6.7°
Sets 13:43:20 0° 26° (NNE) 2,528 6.2 -7.1°
